Location: Mount Cross
(36.6390°N, 79.4878°W)
Time: 08:09:52
(UTC+00:00)

Tiros 1 - Pass Details

Date: 02 April 2023
Orbit: 627 x 661 km, 48.4° (Epoch: 02 June)

Event Time Altitude Azimuth Distance (km) Brightness Sun altitude
Exits shadow 08:27:23 32° 6° (N) 1,137 8.6 -30.0°
Drops below altitude 10° 08:30:41 10° 43° (NE) 2,076 10.6 -29.5°
Sets 08:33:12 0° 52° (NE) 2,991 11.8 -29.0°
